Location: Unspecified
(48.2082°N, 0.0000°E)
Time: 05:19:41
(UTC+00:00)

Altair - Pass Details

Date: 27 June 2019
Orbit: 1501 x 1683 km, 47.2° (Epoch: 22 July)

Event Time Altitude Azimuth Distance (km) Brightness Sun altitude
Rises 01:01:51 0° 290° (WNW) 4,827 10.2 -17.2°
Reaches altitude 10° 01:05:12 10° 283° (WNW) 3,863 9.6 -17.1°
Maximum altitude 01:13:59 38° 221° (SW) 2,351 8.0 -16.7°
Drops below altitude 10° 01:22:58 10° 158° (SSE) 3,934 9.2 -16.2°
Sets 01:26:26 0° 150° (SSE) 4,923 9.8 -16.0°
